G7JIF Weather Reports


Display with metric or nautical units.
time (UTC)temp
F
wind
direction
speed
MPH
gust
MPH
rain 1hr
in
rain 24hr
in
rain mn
in
humidity
%
barometer
mb
20200123050707 42 0 1.0 0.0 0.00 0.00 0.00 98 1029.0
20200123050208 42 22 0.0 1.0 0.00 0.00 0.00 98 1030.0
20200123045710 42 45 0.0 1.0 0.00 0.00 0.00 98 1030.0
20200123045207 42 45 0.0 3.0 0.00 0.00 0.00 98 1030.0
20200123044718 42 45 0.0 3.0 0.00 0.00 0.00 98 1030.0
20200123044208 42 338 0.0 3.0 0.00 0.00 0.00 98 1030.0
20200123043707 42 0 1.0 0.0 0.00 0.00 0.00 98 1030.0
20200123043207 42 22 0.0 2.0 0.00 0.00 0.00 98 1030.0
20200123042717 42 22 0.0 2.0 0.00 0.00 0.00 98 1030.0
20200123042208 42 0 0.0 2.0 0.00 0.00 0.00 98 1030.0
20200123041722 42 22 0.0 0.0 0.00 0.00 0.00 98 1030.0
20200123041208 42 22 0.0 0.0 0.00 0.00 0.00 98 1030.0
20200123040707 42 45 0.0 0.0 0.00 0.00 0.00 98 1030.0
20200123040211 42 45 0.0 1.0 0.00 0.00 0.00 98 1030.0
20200123035708 42 45 0.0 3.0 0.00 0.00 0.00 98 1030.0
20200123035209 42 22 1.0 3.0 0.00 0.00 0.00 98 1030.0
20200123034721 42 68 3.0 3.0 0.00 0.00 0.00 98 1030.0
20200123034212 42 68 3.0 3.0 0.00 0.00 0.00 98 1030.0
20200123033708 42 68 2.0 3.0 0.00 0.00 0.00 98 1030.0
20200123033207 42 22 3.0 3.0 0.00 0.00 0.00 98 1030.0
20200123032707 42 112 0.0 2.0 0.00 0.00 0.00 98 1030.0
20200123032209 42 90 0.0 2.0 0.00 0.00 0.00 98 1030.0
20200123031709 42 68 2.0 2.0 0.00 0.00 0.00 98 1030.0
20200123031207 42 22 0.0 2.0 0.00 0.00 0.00 98 1030.0
20200123030707 42 0 2.0 2.0 0.00 0.00 0.00 98 1030.0
20200123030208 42 0 2.0 2.0 0.00 0.00 0.00 98 1030.0
20200123025707 42 0 2.0 0.0 0.00 0.00 0.00 98 1030.0
20200123025208 42 45 0.0 0.0 0.00 0.00 0.00 98 1030.0
20200123024708 42 45 0.0 0.0 0.00 0.00 0.00 98 1030.0
20200123024208 42 68 0.0 0.0 0.00 0.00 0.00 98 1030.0
20200123023717 42 68 0.0 1.0 0.00 0.00 0.00 98 1030.0
20200123023207 42 68 0.0 1.0 0.00 0.00 0.00 98 1031.0
20200123022708 42 112 0.0 1.0 0.00 0.00 0.00 98 1031.0
20200123022208 42 112 1.0 4.0 0.00 0.00 0.00 98 1031.0
20200123021709 42 112 1.0 4.0 0.00 0.00 0.00 98 1030.0
20200123021209 42 112 0.0 4.0 0.00 0.00 0.00 98 1030.0
20200123020707 42 135 4.0 4.0 0.00 0.00 0.00 98 1030.0
20200123020208 43 135 2.0 3.0 0.00 0.00 0.00 98 1031.0
20200123015707 43 90 0.0 3.0 0.00 0.00 0.00 98 1031.0
20200123015207 43 90 3.0 3.0 0.00 0.00 0.00 98 1031.0
20200123014708 43 112 0.0 1.0 0.00 0.00 0.00 98 1031.0
20200123014209 43 45 0.0 2.0 0.00 0.00 0.00 98 1031.0
20200123013709 43 45 0.0 2.0 0.00 0.00 0.00 98 1031.0
20200123013211 43 112 1.0 2.0 0.00 0.00 0.00 98 1031.0
20200123012706 43 45 0.0 0.0 0.00 0.00 0.00 98 1031.0
20200123012216 43 45 0.0 2.0 0.00 0.00 0.00 98 1031.0
20200123011706 43 68 2.0 2.0 0.00 0.00 0.00 98 1031.0
20200123011207 43 68 2.0 2.0 0.00 0.00 0.00 98 1031.0
20200123010707 43 90 0.0 3.0 0.00 0.00 0.00 98 1031.0
20200123010208 43 90 0.0 3.0 0.00 0.00 0.00 98 1031.0
20200123005713 43 45 1.0 3.0 0.00 0.00 0.00 98 1031.0
20200123005207 43 112 3.0 6.0 0.00 0.00 0.00 98 1031.0
20200123004716 43 45 2.0 6.0 0.00 0.00 0.00 98 1031.0
20200123004209 43 112 3.0 6.0 0.00 0.00 0.00 98 1031.0
20200123003706 43 68 6.0 6.0 0.00 0.00 0.00 98 1031.0
20200123003217 43 68 2.0 3.0 0.00 0.00 0.00 98 1031.0
20200123002707 43 90 3.0 4.0 0.00 0.00 0.00 98 1031.0
20200123002209 43 135 2.0 6.0 0.00 0.00 0.00 98 1031.0
20200123001708 43 45 0.0 6.0 0.00 0.00 0.00 98 1031.0
20200123001210 43 90 3.0 6.0 0.00 0.00 0.00 98 1031.0
20200123000707 43 68 6.0 3.0 0.00 0.00 0.00 98 1031.0
20200123000211 43 45 3.0 3.0 0.00 0.00 0.00 98 1031.0
20200122235707 43 135 1.0 3.0 0.00 0.00 0.00 98 1031.0
20200122235208 43 135 1.0 5.0 0.00 0.00 0.00 98 1031.0
20200122234708 43 68 3.0 5.0 0.00 0.00 0.00 98 1031.0
20200122234212 43 90 2.0 5.0 0.00 0.00 0.00 98 1031.0
20200122233707 44 112 5.0 4.0 0.00 0.00 0.00 98 1031.0
20200122233223 44 68 4.0 4.0 0.00 0.00 0.00 98 1032.0
20200122232707 44 90 2.0 4.0 0.00 0.00 0.00 98 1032.0
20200122232217 44 90 2.0 4.0 0.00 0.00 0.00 98 1032.0
20200122231739 44 68 1.0 2.0 0.00 0.00 0.00 98 1031.0
20200122231208 44 68 1.0 3.0 0.00 0.00 0.00 98 1031.0
20200122230707 44 68 1.0 3.0 0.00 0.00 0.00 98 1031.0
20200122230208 44 45 2.0 3.0 0.00 0.00 0.00 98 1031.0
20200122225714 44 22 0.0 1.0 0.00 0.00 0.00 98 1031.0
20200122225207 44 22 0.0 1.0 0.00 0.00 0.00 98 1031.0
20200122224731 44 22 1.0 1.0 0.00 0.00 0.00 98 1031.0
20200122224223 44 45 0.0 1.0 0.00 0.00 0.00 98 1031.0
20200122223707 44 90 0.0 1.0 0.00 0.00 0.00 98 1031.0
20200122223214 44 338 0.0 3.0 0.00 0.00 0.00 98 1031.0
20200122222711 44 0 1.0 3.0 0.00 0.00 0.00 98 1031.0
20200122222209 44 90 1.0 3.0 0.00 0.00 0.00 98 1031.0
20200122221711 44 90 0.0 2.0 0.00 0.00 0.00 98 1031.0
20200122221212 44 68 1.0 5.0 0.00 0.00 0.00 98 1031.0
20200122220707 44 68 1.0 5.0 0.00 0.00 0.00 98 1031.0
20200122220208 44 112 2.0 5.0 0.00 0.00 0.00 98 1031.0
20200122215708 44 45 4.0 3.0 0.00 0.00 0.00 98 1031.0
20200122215207 44 68 3.0 4.0 0.00 0.00 0.00 98 1031.0
20200122214718 44 45 2.0 4.0 0.00 0.00 0.00 98 1032.0
20200122214208 44 45 0.0 6.0 0.00 0.00 0.00 98 1032.0
20200122213707 44 68 4.0 6.0 0.00 0.00 0.00 98 1032.0
20200122213209 44 338 4.0 6.0 0.00 0.00 0.00 98 1032.0
20200122212707 44 112 2.0 5.0 0.00 0.00 0.00 98 1032.0
20200122212208 44 45 5.0 3.0 0.00 0.00 0.00 98 1032.0
20200122211719 44 22 3.0 3.0 0.00 0.00 0.00 98 1031.0
20200122211207 44 22 3.0 3.0 0.00 0.00 0.00 98 1031.0
20200122210707 44 45 3.0 3.0 0.00 0.00 0.00 98 1031.0
20200122210208 44 45 3.0 3.0 0.00 0.00 0.00 98 1032.0
20200122205708 44 68 1.0 3.0 0.00 0.00 0.00 98 1032.0
20200122205207 44 112 3.0 3.0 0.00 0.00 0.00 98 1032.0
20200122204708 44 112 3.0 3.0 0.00 0.00 0.00 98 1032.0
20200122204214 44 22 3.0 7.0 0.00 0.00 0.00 98 1032.0
20200122203707 44 22 3.0 7.0 0.00 0.00 0.00 98 1032.0
20200122203207 44 22 3.0 7.0 0.00 0.00 0.00 98 1032.0
20200122202707 44 68 3.0 7.0 0.00 0.00 0.00 98 1032.0
20200122202209 44 112 4.0 4.0 0.00 0.00 0.00 98 1032.0
20200122201716 44 45 2.0 3.0 0.00 0.00 0.00 98 1032.0
20200122201207 44 90 3.0 3.0 0.00 0.00 0.00 98 1032.0
20200122200723 44 22 3.0 3.0 0.00 0.00 0.00 98 1032.0
20200122200218 44 90 3.0 2.0 0.00 0.00 0.00 98 1032.0
20200122195708 44 45 2.0 2.0 0.00 0.00 0.00 98 1032.0
20200122195207 44 45 2.0 4.0 0.00 0.00 0.00 98 1032.0
20200122194710 44 22 2.0 4.0 0.00 0.00 0.00 98 1032.0
20200122194208 44 45 4.0 4.0 0.00 0.00 0.00 98 1032.0
20200122193717 44 135 0.0 3.0 0.00 0.00 0.00 98 1032.0
20200122193217 44 68 0.0 0.0 0.00 0.00 0.00 98 1033.0
20200122192707 44 45 0.0 1.0 0.00 0.00 0.00 98 1033.0
20200122192208 44 0 0.0 1.0 0.00 0.00 0.00 98 1033.0
20200122191740 44 68 1.0 2.0 0.00 0.00 0.00 98 1032.0
20200122191210 44 68 1.0 2.0 0.00 0.00 0.00 98 1032.0
20200122190707 44 45 0.0 2.0 0.00 0.00 0.00 98 1032.0
20200122190208 44 68 0.0 2.0 0.00 0.00 0.00 98 1032.0
20200122185708 44 45 0.0 0.0 0.00 0.00 0.00 98 1032.0
20200122185207 44 68 0.0 0.0 0.00 0.00 0.00 98 1032.0
20200122184708 44 45 0.0 0.0 0.00 0.00 0.00 98 1032.0
20200122184208 44 315 0.0 0.0 0.00 0.00 0.00 98 1032.0
20200122183715 44 45 0.0 0.0 0.00 0.00 0.00 98 1032.0
20200122183233 44 45 0.0 0.0 0.00 0.00 0.00 98 1032.0
20200122182707 44 45 0.0 1.0 0.00 0.00 0.00 98 1032.0
20200122182208 44 112 0.0 1.0 0.00 0.00 0.00 98 1032.0
20200122181734 44 45 0.0 1.0 0.00 0.00 0.00 98 1032.0
20200122181207 44 45 0.0 1.0 0.00 0.00 0.00 98 1032.0
20200122180707 44 68 0.0 4.0 0.00 0.00 0.00 98 1032.0
20200122180213 44 68 0.0 4.0 0.00 0.00 0.00 98 1032.0
20200122175719 44 45 4.0 4.0 0.00 0.00 0.00 98 1032.0
20200122175207 44 45 0.0 0.0 0.00 0.00 0.00 98 1032.0
20200122174708 44 45 0.0 0.0 0.00 0.00 0.00 98 1032.0
20200122174216 44 90 0.0 1.0 0.00 0.00 0.00 98 1032.0
20200122173730 44 90 0.0 1.0 0.00 0.00 0.00 98 1032.0
20200122173207 44 45 0.0 1.0 0.00 0.00 0.00 98 1032.0
20200122172724 44 45 1.0 2.0 0.00 0.00 0.00 98 1032.0
20200122172208 44 135 0.0 2.0 0.00 0.00 0.00 98 1032.0
20200122171708 44 68 1.0 4.0 0.00 0.00 0.00 98 1032.0
20200122171209 44 45 0.0 4.0 0.00 0.00 0.00 98 1032.0
20200122170707 44 68 1.0 4.0 0.00 0.00 0.00 98 1032.0
20200122170208 44 45 1.0 2.0 0.00 0.00 0.00 98 1032.0
20200122165707 44 45 1.0 2.0 0.00 0.00 0.00 98 1032.0
20200122165215 44 338 1.0 1.0 0.00 0.00 0.00 98 1032.0
20200122164708 44 22 0.0 1.0 0.00 0.00 0.00 98 1032.0
20200122164214 44 45 1.0 0.0 0.00 0.00 0.00 98 1032.0
20200122163707 44 338 0.0 0.0 0.00 0.00 0.00 98 1032.0
20200122163208 44 338 0.0 1.0 0.00 0.00 0.00 98 1032.0
20200122162707 44 45 0.0 1.0 0.00 0.00 0.00 98 1032.0
20200122162215 44 0 0.0 1.0 0.00 0.00 0.00 98 1032.0
20200122161708 44 68 0.0 1.0 0.00 0.00 0.00 98 1032.0
20200122161208 44 68 0.0 1.0 0.00 0.00 0.00 98 1032.0
20200122160711 44 45 0.0 0.0 0.00 0.00 0.00 98 1032.0
20200122160236 44 338 0.0 2.0 0.00 0.00 0.00 98 1032.0
20200122155722 44 338 0.0 2.0 0.00 0.00 0.00 98 1032.0
20200122155207 44 0 0.0 2.0 0.00 0.00 0.00 98 1032.0
20200122154744 44 315 2.0 2.0 0.00 0.00 0.00 98 1032.0
20200122154208 44 315 2.0 2.0 0.00 0.00 0.00 98 1032.0
20200122153707 44 338 0.0 0.0 0.00 0.00 0.00 98 1032.0
20200122153208 44 338 0.0 0.0 0.00 0.00 0.00 98 1032.0
20200122152707 44 338 0.0 0.0 0.00 0.00 0.00 98 1032.0
20200122152208 44 22 0.0 2.0 0.00 0.00 0.00 98 1032.0
20200122151708 44 315 0.0 2.0 0.00 0.00 0.00 98 1032.0
20200122151235 44 45 0.0 2.0 0.00 0.00 0.00 98 1032.0
20200122150707 44 338 1.0 0.0 0.00 0.00 0.00 98 1032.0
20200122150209 44 315 0.0 0.0 0.00 0.00 0.00 98 1032.0
20200122145720 44 22 0.0 2.0 0.00 0.00 0.00 98 1032.0
20200122145207 44 45 0.0 2.0 0.00 0.00 0.00 98 1032.0
20200122144709 44 338 0.0 2.0 0.00 0.00 0.00 98 1032.0
20200122144208 44 0 2.0 2.0 0.00 0.00 0.00 98 1032.0
20200122143708 44 338 0.0 1.0 0.00 0.00 0.00 98 1032.0
20200122143207 44 315 1.0 1.0 0.00 0.00 0.00 98 1032.0
20200122142713 44 45 0.0 2.0 0.00 0.00 0.00 98 1032.0
20200122142221 44 45 0.0 2.0 0.00 0.00 0.00 98 1032.0
20200122141730 44 45 1.0 2.0 0.00 0.00 0.00 98 1032.0
20200122141222 44 68 0.0 2.0 0.00 0.00 0.00 98 1032.0
20200122140707 44 22 0.0 2.0 0.00 0.00 0.00 98 1032.0
20200122140209 44 45 0.0 2.0 0.00 0.00 0.00 98 1033.0
20200122135733 44 68 0.0 0.0 0.00 0.00 0.00 98 1033.0
20200122135207 44 68 0.0 0.0 0.00 0.00 0.00 98 1033.0
20200122134719 44 315 0.0 0.0 0.00 0.00 0.00 98 1033.0
20200122134209 44 0 0.0 0.0 0.00 0.00 0.00 98 1033.0
20200122133723 44 0 0.0 0.0 0.00 0.00 0.00 98 1033.0
20200122133207 44 338 0.0 0.0 0.00 0.00 0.00 98 1033.0
20200122132720 44 315 0.0 0.0 0.00 0.00 0.00 98 1033.0
20200122132217 43 45 0.0 0.0 0.00 0.00 0.00 98 1033.0
20200122131709 43 45 0.0 0.0 0.00 0.00 0.00 98 1033.0
20200122131207 43 22 0.0 0.0 0.00 0.00 0.00 98 1033.0
20200122130714 42 22 0.0 0.0 0.00 0.00 0.00 98 1033.0
20200122130208 42 22 0.0 0.0 0.00 0.00 0.00 98 1033.0
20200122125727 42 22 0.0 0.0 0.00 0.00 0.00 98 1033.0
20200122125207 42 0 0.0 1.0 0.00 0.00 0.00 98 1033.0
20200122124757 42 338 0.0 1.0 0.00 0.00 0.00 98 1033.0
20200122124208 42 338 0.0 1.0 0.00 0.00 0.00 98 1033.0
20200122123707 42 0 0.0 1.0 0.00 0.00 0.00 98 1033.0
20200122123208 42 338 1.0 1.0 0.00 0.00 0.00 98 1033.0
20200122122711 41 338 0.0 0.0 0.00 0.00 0.00 98 1033.0
20200122122216 41 315 0.0 0.0 0.00 0.00 0.00 98 1033.0
20200122121708 40 292 0.0 0.0 0.00 0.00 0.00 98 1033.0
20200122121209 40 292 0.0 0.0 0.00 0.00 0.00 98 1033.0
20200122120707 40 292 0.0 0.0 0.00 0.00 0.00 98 1033.0
20200122120208 40 292 0.0 0.0 0.00 0.00 0.00 98 1034.0
20200122115716 40 292 0.0 0.0 0.00 0.00 0.00 98 1034.0
20200122115207 39 292 0.0 0.0 0.00 0.00 0.00 98 1034.0
20200122114711 39 292 0.0 0.0 0.00 0.00 0.00 98 1034.0
20200122114216 39 248 0.0 0.0 0.00 0.00 0.00 98 1034.0
20200122113716 39 135 0.0 0.0 0.00 0.00 0.00 98 1034.0
20200122113219 38 135 0.0 0.0 0.00 0.00 0.00 98 1034.0
20200122112707 38 135 0.0 0.0 0.00 0.00 0.00 98 1034.0
20200122112208 38 135 0.0 0.0 0.00 0.00 0.00 98 1034.0
20200122111709 38 135 0.0 0.0 0.00 0.00 0.00 98 1034.0
20200122111207 37 135 0.0 0.0 0.00 0.00 0.00 98 1034.0
20200122110707 37 135 0.0 0.0 0.00 0.00 0.00 98 1034.0
20200122110216 37 135 0.0 0.0 0.00 0.00 0.00 98 1034.0
20200122105707 37 135 0.0 0.0 0.00 0.00 0.00 98 1034.0
20200122105212 36 135 0.0 0.0 0.00 0.00 0.00 98 1034.0
20200122104708 36 135 0.0 0.0 0.00 0.00 0.00 98 1034.0
20200122104210 36 135 0.0 0.0 0.00 0.00 0.00 98 1034.0
20200122103733 36 135 0.0 0.0 0.00 0.00 0.00 98 1034.0
20200122103207 36 135 0.0 0.0 0.00 0.00 0.00 98 1034.0
20200122102717 36 135 0.0 0.0 0.00 0.00 0.00 98 1034.0
20200122102209 36 135 0.0 2.0 0.00 0.00 0.00 98 1034.0
20200122101723 36 135 0.0 2.0 0.00 0.00 0.00 98 1034.0
20200122101227 36 135 1.0 2.0 0.00 0.00 0.00 98 1034.0
20200122100707 36 135 2.0 2.0 0.00 0.00 0.00 98 1034.0
20200122100217 36 135 0.0 2.0 0.00 0.00 0.00 98 1033.0
20200122095707 35 158 0.0 1.0 0.00 0.00 0.00 98 1033.0
20200122095211 35 135 0.0 0.0 0.00 0.00 0.00 98 1033.0
20200122094735 35 202 0.0 0.0 0.00 0.00 0.00 98 1034.0
20200122094210 35 202 0.0 0.0 0.00 0.00 0.00 98 1034.0
20200122093713 35 202 0.0 0.0 0.00 0.00 0.00 98 1034.0
20200122093232 35 202 0.0 0.0 0.00 0.00 0.00 98 1034.0
20200122092707 35 135 0.0 0.0 0.00 0.00 0.00 98 1034.0
20200122092209 35 315 0.0 0.0 0.00 0.00 0.00 98 1034.0
20200122091723 34 315 0.0 0.0 0.00 0.00 0.00 98 1034.0
20200122091207 34 315 0.0 0.0 0.00 0.00 0.00 98 1034.0
20200122090709 34 315 0.0 0.0 0.00 0.00 0.00 98 1034.0
20200122090209 34 315 0.0 0.0 0.00 0.00 0.00 98 1034.0
20200122085730 34 315 0.0 0.0 0.00 0.00 0.00 98 1034.0
20200122085206 34 315 0.0 1.0 0.00 0.00 0.00 98 1034.0
20200122084711 33 315 0.0 1.0 0.00 0.00 0.00 98 1034.0
20200122084211 33 315 0.0 1.0 0.00 0.00 0.00 98 1034.0
20200122083730 33 315 0.0 1.0 0.00 0.00 0.00 98 1034.0
20200122083207 33 315 0.0 1.0 0.00 0.00 0.00 98 1034.0
20200122082718 33 315 0.0 1.0 0.00 0.00 0.00 98 1034.0
20200122082209 33 338 0.0 1.0 0.00 0.00 0.00 98 1034.0
20200122081708 33 338 1.0 1.0 0.00 0.00 0.00 98 1033.0
20200122081208 33 338 1.0 1.0 0.00 0.00 0.00 98 1033.0
20200122080707 33 338 1.0 1.0 0.00 0.00 0.00 98 1033.0
20200122080219 33 338 1.0 1.0 0.00 0.00 0.00 98 1034.0
20200122075721 33 315 0.0 0.0 0.00 0.00 0.00 98 1034.0
20200122075206 33 315 0.0 0.0 0.00 0.00 0.00 98 1034.0
20200122074708 33 315 0.0 0.0 0.00 0.00 0.00 98 1033.0
20200122074208 33 338 0.0 0.0 0.00 0.00 0.00 98 1033.0
20200122073707 33 338 0.0 0.0 0.00 0.00 0.00 98 1033.0
20200122073207 33 338 0.0 0.0 0.00 0.00 0.00 98 1034.0
20200122072708 33 338 0.0 0.0 0.00 0.00 0.00 98 1034.0
20200122072208 33 338 0.0 0.0 0.00 0.00 0.00 98 1034.0
20200122071718 33 338 0.0 0.0 0.00 0.00 0.00 98 1034.0
20200122071207 33 315 0.0 0.0 0.00 0.00 0.00 98 1034.0
20200122070707 33 315 0.0 0.0 0.00 0.00 0.00 98 1034.0
20200122070208 33 202 0.0 0.0 0.00 0.00 0.00 98 1034.0
20200122065707 33 202 0.0 0.0 0.00 0.00 0.00 98 1034.0
20200122065208 33 112 0.0 0.0 0.00 0.00 0.00 98 1034.0
20200122064714 33 112 0.0 0.0 0.00 0.00 0.00 98 1034.0
20200122064211 33 135 0.0 0.0 0.00 0.00 0.00 98 1034.0
20200122063707 33 135 0.0 0.0 0.00 0.00 0.00 98 1034.0
20200122063208 33 135 0.0 0.0 0.00 0.00 0.00 98 1033.0
20200122062733 33 135 0.0 0.0 0.00 0.00 0.00 98 1033.0
20200122062208 33 135 0.0 1.0 0.00 0.00 0.00 98 1033.0
20200122061724 32 158 0.0 1.0 0.00 0.00 0.00 98 1034.0
20200122061207 32 158 0.0 1.0 0.00 0.00 0.00 98 1034.0
20200122060710 32 135 0.0 0.0 0.00 0.00 0.00 98 1034.0
20200122060208 32 135 0.0 1.0 0.00 0.00 0.00 98 1034.0
20200122055707 32 135 0.0 1.0 0.00 0.00 0.00 98 1034.0
20200122055208 32 180 0.0 1.0 0.00 0.00 0.00 98 1034.0
20200122054709 32 135 0.0 0.0 0.00 0.00 0.00 98 1034.0
20200122054212 32 135 0.0 2.0 0.00 0.00 0.00 98 1034.0
20200122053707 32 135 0.0 2.0 0.00 0.00 0.00 98 1034.0
20200122053217 32 135 0.0 2.0 0.00 0.00 0.00 98 1034.0
20200122052710 32 135 1.0 0.0 0.00 0.00 0.00 98 1034.0
20200122052208 32 135 0.0 1.0 0.00 0.00 0.00 98 1034.0
20200122051715 32 135 0.0 1.0 0.00 0.00 0.00 98 1034.0
20200122051208 32 338 0.0 1.0 0.00 0.00 0.00 98 1034.0